Eutelsat I F-5

operational
NORAD ID: 19331 Int'l Des: 1988-063 Owner: EUTEL Country: I-EUT
HEOCIRCULAR

Eutelsat I F-5について

説明を読み込み中...

リアルタイム位置

3D地球を読み込み中...

次回通過

高度履歴

Altitude vs Time

uPlot chart will show altitude changes over time

軌道要素

1 19331U 88063B 26061.47013554 -.00000078 00000-0 00000-0 0 9992
2 19331 14.6087 346.7294 0007580 167.4015 36.0129 0.98164796113291
Epoch: Mar 2, 2026 • Age: 69 hours

現在のステータス

高度 36419.7 km
速度 3.05 km/s
衛星直下点 -6.75°S, 156.78°W
打ち上げ日 Jul 21, 1988
運用期間 37.6 years
タイプ other

技術仕様

分類 Payload
質量 662.00 kg
乾燥質量 540.00 kg
総質量 1175.00 kg
長さ 2.40 m
直径 2.20 m
スパン 13.80 m
形状 Box + 2 Pan
製造者 BAES
バスタイプ ECS
フェーズステータス Renamed
所有者/国 EUTEL/I-EUT

大規模コンステレーション

Loading constellations...